Torna al catalogo

IRIDIUM 28

AttivoComunicazioniPO
NORAD 24948·PAYLOAD·🇺🇸 United States

Lanciato Sep 14, 1997 da Baikonur Cosmodrome

Loading…

Prossimi Passaggi (prossime 24 ore)

TLE

AggiornatoSource: Space-Track

Epoca: Sep 14, 2026, 10:14 UTC

1 24948U 97051E   26257.42649290  .00000231  00000-0  70116-4 0  9992
2 24948  86.3961 310.4605 0002545  81.4832 278.6654 14.37740154519103

Traccia IRIDIUM 28 in tempo reale con AllMySat

Download on the App Store